Regional Weather Roundup
Issued by NWS

Home | Current Version | Previous Version | Text Only | Print | Product List | Glossary On
Versions: 1 2 3 4 5 6 7 8 9 10 11 12 13 14 15 16 17 18 19 20 21 22 23 24 25 26 27 28 29 30 31 32 33 34 35 36 37 38 39 40 41 42 43 44 45 46 47 48 49 50
000
ASUS44 KMEG 052010
RWRTN
TENNESSEE HOURLY STATE WEATHER ROUNDUP
NATIONAL WEATHER SERVICE MEMPHIS TN
300 PM CDT SUN JUL 05 2015

TNZ002-004-019-021-049-052-054-088>092-052100-
WEST TENNESSEE

CITY           SKY/WX    TMP DP  RH WIND       PRES   REMARKS
MEMPHIS INTL   PTSUNNY   84  71  65 SW8       30.08F
NWS MEMPHIS      N/A     85 N/A N/A MISG        N/A
JACKSON        PTSUNNY   84  71  65 SW9       30.07F
DYERSBURG        N/A    N/A N/A N/A MISG        N/A
PARIS          MOSUNNY   84  70  61 W3        30.08F
LEXINGTON      PTSUNNY   82  70  65 S8        30.07F
$$

TNZ008-025-027-028-033-062-065-066-052100-
NORTH MIDDLE TENNESSEE

CITY           SKY/WX    TMP DP  RH WIND       PRES   REMARKS
NASHVILLE      PTSUNNY   84  69  60 NW7       30.08S
CLARKSVILLE    MOSUNNY   84  65  52 W8        30.07S
SMYRNA         PTSUNNY   83  71  66 E7        30.08F
COOKEVILLE     SUNNY     82  70  65 W7        30.09F
CROSSVILLE     PTSUNNY   76  65  68 W17G24    30.11F
$$

TNZ061-075-076-078-094-096-097-052100-
SOUTH MIDDLE TENNESSEE

CITY           SKY/WX    TMP DP  RH WIND       PRES   REMARKS
TULLAHOMA      MOSUNNY   81  68  65 CALM      30.11F
WINCHESTER     MOSUNNY   82  70  65 SW8       30.10F
MCMINNVILLE    SUNNY     79  72  78 CALM      30.10F
COLUMBIA       MOSUNNY   84  72  65 W5        30.07F
SHELBYVILLE    PTSUNNY   82  72  69 W8          N/A
$$

TNZ017-018-042-046-047-052100-
NORTHEAST TENNESSEE

CITY           SKY/WX    TMP DP  RH WIND       PRES   REMARKS
TRI CITIES     PTSUNNY   82  67  60 VRB6      30.04F
ELIZABETHTON   PTCLDY    81  66  61 VRB6      30.04F
$$

TNZ012-013-036-069-073-074-052100-
CENTRAL EAST TENNESSEE

CITY           SKY/WX    TMP DP  RH WIND       PRES   REMARKS
KNOXVILLE      LGT RAIN  72  67  84 SW9       30.06
OAK RIDGE      PTSUNNY   79  67  66 VRB3      30.06F
GATLINBURG     MOCLDY    79  66  65 W13       30.05R
MORRISTOWN     PTCLDY    79  70  73 W8        30.06S
$$

TNZ083-085-099-052100-
SOUTHEAST TENNESSEE

CITY           SKY/WX    TMP DP  RH WIND       PRES   REMARKS
CHATTANOOGA    PTSUNNY   82  66  58 SW13      30.08F
$$

SKY/WX REPORTED AS FAIR MEANS FEW OR NO CLOUDS BELOW
12 THOUSAND FEET.



USA.gov is the U.S. government's official web portal to all federal, state and local government web resources and services.